IRIDIUM 33 DEB, 33775

Orbit data source: Space-Track

IRIDIUM 33 DEB, 33775 is space debris in LEO originally from a launch on Sun, 14 Sep 1997 UTC launched from the Tyuratam Missile And Space Complex (TTMTR). The debris from Iridium 33, an American commercial communications satellite, has been tracked extensively since its accidental collision with the defunct Russian satellite Cosmos 2251 in 2009. This event, occurring at high speed in low Earth orbit (LEO), generated thousands of pieces of space debris, significantly increasing the risk of further collisions. The Iridium 33 debris cloud has impacted space traffic management and orbital debris mitigation strategies, making it a subject of ongoing study in space situational awareness.

Loading next visibility...
Identifier
33775, 1997-051N
Orbit
LEO
Country
Flag of USUS
Related business
Manufacturer
Unknown
Mission
Spacecraft
Bus & Motor
Unknown
Mass
Unknown
Launch date (UTC)
1997-09-14 (29 years ago)
Launch vehicle
Unknown
Launch site
Tyuratam Missile And Space Complex (TTMTR)
Object type
Payload
Rocket body
Debris
Shape & HBR
Unknown shape, 0.3 m
Radar Cross Section
Medium (>0.1 m² and <1 m²)

Expand to show TLE details & history
Last TLE update: 8 hours ago

TLE from 8 hours ago
0 IRIDIUM 33 DEB
1 33775U 97051N   26266.46230712  .00000745  00000-0  22020-3 0  9999
2 33775  86.3585 287.9315 0010534 307.6536 179.2095 14.42201132922433
Epoch: 2026-09-23T11:05Z
TLE epoch observation values (Epoch: 2026-09-23T11:05:43.335Z)
Latitude
53.08041°
Longitude
-65.64511°
Altitude
767.508 km
Speed
7.472 km/s
True Right ascension
06h 52m 23s
True Declination
52° 54' 55"
Sunlit
Object was in daylight at epoch
Visualization orbit readout
Latitude
Unknown
Longitude
Unknown
Altitude
Unknown
Speed
Unknown
Apparent Right ascension
Unknown
Apparent Declination
Unknown
Sunlit
N/A
Visualization observer readout
Local Sidereal Time
12:41:51
Azimuth
Unknown
Elevation
Unknown
Doppler factor
Unknown
Orbital elements
Apogee altitude
755.696 km
Perigee altitude
740.682 km
Semi-major axis
7,126.326 km
Eccentricity
0.00105
Inclination
86.3585°
RAAN
287.9315°
Arg. of periapsis
307.6536°
True anomaly
179.21116°
Mean anomaly
179.2095°
Eccentric anomaly
179.21033°
Mean motion
3.60782 °/min
Orbital period
99.78 mins
BSTAR
0.0002202
Loading maneuver chart data...
Computing Atmospheric mass density...

Documentation

Showing up to 5 results
|